Time,TemperatureF,DewpointF,PressureIn,WindDirection,WindDirectionDegrees,WindSpeedMPH,WindSpeedGustMPH,Humidity,HourlyPrecipIn,Conditions,Clouds,dailyrainin,SoftwareType,DateUTC
2013-05-27 00:00:00,33.0,33.0,-100.00,NW,308,3.0,8.0,100,-99.99,,,-99.99,,2013-05-27 07:00:00,
2013-05-27 00:52:00,33.0,33.0,-100.00,NW,308,3.0,8.0,100,-99.99,,,-99.99,,2013-05-27 07:52:00,
2013-05-27 01:00:00,33.0,33.0,-100.00,NW,304,3.0,10.0,100,-99.99,,,-99.99,,2013-05-27 08:00:00,
2013-05-27 01:52:00,33.0,33.0,-100.00,NW,304,3.0,10.0,100,-99.99,,,-99.99,,2013-05-27 08:52:00,
2013-05-27 02:00:00,33.0,32.0,-100.00,WNW,295,3.0,12.0,96,-99.99,,,-99.99,,2013-05-27 09:00:00,
2013-05-27 02:53:00,33.0,32.0,-100.00,WNW,295,3.0,12.0,96,-99.99,,,-99.99,,2013-05-27 09:53:00,
2013-05-27 03:00:00,34.0,32.0,-100.00,NW,308,3.0,12.0,92,-99.99,,,-99.99,,2013-05-27 10:00:00,
2013-05-27 03:52:00,34.0,32.0,-100.00,NW,308,3.0,12.0,92,-99.99,,,-99.99,,2013-05-27 10:52:00,
2013-05-27 04:00:00,35.0,35.0,-100.00,WNW,296,2.0,9.0,99,-99.99,,,-99.99,,2013-05-27 11:00:00,
2013-05-27 04:52:00,35.0,35.0,-100.00,WNW,296,2.0,9.0,99,-99.99,,,-99.99,,2013-05-27 11:52:00,
2013-05-27 05:00:00,34.0,34.0,-100.00,WSW,248,2.0,10.0,100,-99.99,,,-99.99,,2013-05-27 12:00:00,
2013-05-27 05:52:00,34.0,34.0,-100.00,WSW,248,2.0,10.0,100,-99.99,,,-99.99,,2013-05-27 12:52:00,
2013-05-27 06:00:00,33.0,33.0,-100.00,North,0,0.0,3.0,100,-99.99,,,-99.99,,2013-05-27 13:00:00,
2013-05-27 06:52:00,33.0,33.0,-100.00,North,0,0.0,3.0,100,-99.99,,,-99.99,,2013-05-27 13:52:00,
2013-05-27 07:00:00,33.0,33.0,-100.00,North,0,0.0,2.0,100,-99.99,,,-99.99,,2013-05-27 14:00:00,
2013-05-27 07:52:00,33.0,33.0,-100.00,North,0,0.0,2.0,100,-99.99,,,-99.99,,2013-05-27 14:52:00,
2013-05-27 08:00:00,35.0,35.0,-100.00,SW,225,1.0,7.0,100,-99.99,,,-99.99,,2013-05-27 15:00:00,
2013-05-27 08:53:00,35.0,35.0,-100.00,SW,225,1.0,7.0,100,-99.99,,,-99.99,,2013-05-27 15:53:00,
2013-05-27 09:00:00,35.0,35.0,-100.00,SW,223,1.0,3.0,100,-99.99,,,-99.99,,2013-05-27 16:00:00,
2013-05-27 09:52:00,35.0,35.0,-100.00,SW,223,1.0,3.0,100,-99.99,,,-99.99,,2013-05-27 16:52:00,
2013-05-27 10:00:00,35.0,35.0,-100.00,WSW,237,1.0,8.0,100,-99.99,,,-99.99,,2013-05-27 17:00:00,
2013-05-27 10:52:00,35.0,35.0,-100.00,WSW,237,1.0,8.0,100,-99.99,,,-99.99,,2013-05-27 17:52:00,
2013-05-27 11:00:00,36.0,36.0,-100.00,West,265,1.0,6.0,100,-99.99,,,-99.99,,2013-05-27 18:00:00,
2013-05-27 11:52:00,36.0,36.0,-100.00,West,265,1.0,6.0,100,-99.99,,,-99.99,,2013-05-27 18:52:00,
2013-05-27 12:00:00,37.0,37.0,-100.00,North,0,0.0,5.0,100,-99.99,,,-99.99,,2013-05-27 19:00:00,
2013-05-27 12:52:00,37.0,37.0,-100.00,North,0,0.0,5.0,100,-99.99,,,-99.99,,2013-05-27 19:52:00,
2013-05-27 13:00:00,37.0,37.0,-100.00,West,273,2.0,7.0,100,-99.99,,,-99.99,,2013-05-27 20:00:00,
2013-05-27 13:52:00,37.0,37.0,-100.00,West,273,2.0,7.0,100,-99.99,,,-99.99,,2013-05-27 20:52:00,
2013-05-27 14:00:00,38.0,38.0,-100.00,West,271,1.0,6.0,100,-99.99,,,-99.99,,2013-05-27 21:00:00,
2013-05-27 14:53:00,38.0,38.0,-100.00,West,271,1.0,6.0,100,-99.99,,,-99.99,,2013-05-27 21:53:00,
2013-05-27 15:00:00,39.0,39.0,-100.00,West,264,5.0,12.0,100,-99.99,,,-99.99,,2013-05-27 22:00:00,
2013-05-27 15:53:00,39.0,39.0,-100.00,West,264,5.0,12.0,100,-99.99,,,-99.99,,2013-05-27 22:53:00,
2013-05-27 16:00:00,40.0,40.0,-100.00,WNW,282,7.0,16.0,100,-99.99,,,-99.99,,2013-05-27 23:00:00,
2013-05-27 16:52:00,40.0,40.0,-100.00,WNW,282,7.0,16.0,100,-99.99,,,-99.99,,2013-05-27 23:52:00,
2013-05-27 18:00:00,38.0,38.0,-100.00,WNW,284,6.0,20.0,100,-99.99,,,-99.99,,2013-05-28 01:00:00,
2013-05-27 18:52:00,38.0,38.0,-100.00,WNW,284,6.0,20.0,100,-99.99,,,-99.99,,2013-05-28 01:52:00,
2013-05-27 19:00:00,37.0,37.0,-100.00,West,281,10.0,22.0,100,-99.99,,,-99.99,,2013-05-28 02:00:00,
2013-05-27 19:52:00,37.0,37.0,-100.00,West,281,10.0,22.0,100,-99.99,,,-99.99,,2013-05-28 02:52:00,
2013-05-27 20:00:00,37.0,37.0,-100.00,West,280,10.0,20.0,100,-99.99,,,-99.99,,2013-05-28 03:00:00,
2013-05-27 20:53:00,37.0,37.0,-100.00,West,280,10.0,20.0,100,-99.99,,,-99.99,,2013-05-28 03:53:00,
2013-05-27 21:00:00,35.0,35.0,-100.00,West,280,10.0,27.0,100,-99.99,,,-99.99,,2013-05-28 04:00:00,
2013-05-27 21:53:00,35.0,35.0,-100.00,West,280,10.0,27.0,100,-99.99,,,-99.99,,2013-05-28 04:53:00,
2013-05-27 22:00:00,35.0,35.0,-100.00,West,273,12.0,20.0,100,-99.99,,,-99.99,,2013-05-28 05:00:00,
2013-05-27 22:52:00,35.0,35.0,-100.00,West,273,12.0,20.0,100,-99.99,,,-99.99,,2013-05-28 05:52:00,
2013-05-27 23:00:00,35.0,35.0,-100.00,WNW,290,8.0,16.0,100,-99.99,,,-99.99,,2013-05-28 06:00:00,
2013-05-27 23:52:00,35.0,35.0,-100.00,WNW,290,8.0,16.0,100,-99.99,,,-99.99,,2013-05-28 06:52:00,